EW4556 Weather Reports


Display with metric or nautical units.
time (UTC)temp
F
wind
direction
speed
MPH
gust
MPH
rain 1hr
in
rain 24hr
in
rain mn
in
humidity
%
barometer
mb
20171217002307 26 245 0.0 5.0 0.00 0.00 0.00 87 1018.6
20171217000748 26 244 0.0 6.0 0.00 0.00 0.00 87 1018.5
20171216235248 26 269 1.0 5.0 0.00 0.00 0.00 87 1018.2
20171216233835 26 321 1.0 4.0 0.00 0.00 0.00 89 1018.0
20171216232235 26 46 0.0 3.0 0.00 0.00 0.00 90 1017.7
20171216230821 26 250 1.0 3.0 0.00 0.00 0.00 90 1017.5
20171216225236 27 36 1.0 3.0 0.00 0.00 0.00 91 1017.4
20171216223734 27 288 0.0 1.0 0.00 0.00 0.00 91 1016.9
20171216222238 27 310 0.0 3.0 0.00 0.00 0.00 90 1016.5
20171216220722 27 23 0.0 2.0 0.00 0.00 0.00 90 1016.1
20171216215224 27 261 0.0 4.0 0.00 0.00 0.00 89 1015.8
20171216213724 28 304 1.0 4.0 0.00 0.00 0.00 89 1015.7
20171216212229 28 253 0.0 3.0 0.00 0.00 0.00 89 1015.3
20171216210722 28 259 0.0 1.0 0.00 0.00 0.00 88 1015.0
20171216205228 29 257 0.0 4.0 0.00 0.00 0.00 87 1014.7
20171216203719 29 250 1.0 3.0 0.00 0.00 0.00 85 1014.5
20171216202211 29 275 0.0 3.0 0.00 0.00 0.00 85 1014.1
20171216200711 29 195 0.0 6.0 0.00 0.00 0.00 83 1014.0
20171216195229 30 284 3.0 10.0 0.00 0.00 0.00 81 1013.9
20171216193728 30 253 1.0 8.0 0.00 0.00 0.00 79 1013.6
20171216192210 30 275 1.0 6.0 0.00 0.00 0.00 79 1013.5
20171216190716 30 296 3.0 11.0 0.00 0.00 0.00 78 1013.3
20171216185221 30 281 1.0 7.0 0.00 0.00 0.00 78 1013.0
20171216183706 30 336 1.0 4.0 0.00 0.00 0.00 78 1013.3
20171216182219 30 306 1.0 9.0 0.00 0.00 0.00 77 1013.0
20171216180711 29 237 1.0 5.0 0.00 0.00 0.00 77 1012.9
20171216175307 29 249 1.0 10.0 0.00 0.00 0.00 77 1012.9
20171216173745 29 267 4.0 7.0 0.00 0.00 0.00 76 1013.1
20171216172253 29 219 2.0 6.0 0.00 0.00 0.00 77 1013.2
20171216170933 28 277 1.0 6.0 0.00 0.00 0.00 79 1013.3
20171216165159 28 274 2.0 12.0 0.00 0.00 0.00 78 1013.5
20171216163731 28 240 3.0 7.0 0.00 0.00 0.00 78 1013.9
20171216162223 27 297 3.0 8.0 0.00 0.00 0.00 79 1014.0
20171216160653 27 247 2.0 8.0 0.00 0.00 0.00 78 1014.3
20171216155206 28 238 2.0 9.0 0.00 0.00 0.00 77 1014.5
20171216153655 27 251 2.0 10.0 0.00 0.00 0.00 77 1014.6
20171216152207 27 334 2.0 8.0 0.00 0.00 0.00 77 1014.9
20171216150652 26 239 2.0 5.0 0.00 0.00 0.00 78 1014.9
20171216145154 25 244 1.0 7.0 0.00 0.00 0.00 79 1015.0
20171216143642 24 219 2.0 7.0 0.00 0.00 0.00 78 1015.1
20171216142203 23 246 0.0 6.0 0.00 0.00 0.00 79 1015.0
20171216140633 23 251 2.0 8.0 0.00 0.00 0.00 79 1014.8
20171216135245 22 228 1.0 7.0 0.00 0.00 0.00 79 1014.6
20171216133640 21 205 1.0 6.0 0.00 0.00 0.00 79 1014.7
20171216132128 20 269 1.0 5.0 0.00 0.00 0.00 80 1014.4
20171216130622 20 258 1.0 5.0 0.00 0.00 0.00 82 1014.4
20171216125121 19 246 1.0 4.0 0.00 0.00 0.00 83 1014.3
20171216123654 18 235 1.0 3.0 0.00 0.00 0.00 82 1014.0
20171216122130 18 269 1.0 3.0 0.00 0.00 0.00 82 1013.8
20171216120635 18 215 0.0 3.0 0.00 0.00 0.00 82 1013.7
20171216115134 18 264 1.0 4.0 0.00 0.00 0.00 81 1013.3
20171216113625 18 291 1.0 7.0 0.00 0.00 0.00 82 1013.3
20171216112231 19 286 1.0 5.0 0.00 0.00 0.00 82 1012.9
20171216110627 19 268 1.0 7.0 0.00 0.00 0.00 81 1013.0
20171216105129 19 256 2.0 8.0 0.00 0.00 0.00 81 1012.7
20171216103605 19 263 2.0 8.0 0.00 0.00 0.00 82 1012.6
20171216102123 19 271 1.0 8.0 0.00 0.00 0.00 82 1012.4
20171216100639 19 262 1.0 8.0 0.00 0.00 0.00 82 1012.3
20171216095128 19 289 3.0 11.0 0.00 0.00 0.00 83 1012.2
20171216093614 19 270 2.0 12.0 0.00 0.00 0.00 83 1012.3
20171216092101 19 194 1.0 10.0 0.00 0.00 0.00 83 1012.2
20171216090613 19 277 2.0 5.0 0.00 0.00 0.00 84 1012.3
20171216085116 19 229 2.0 9.0 0.00 0.00 0.00 85 1012.2
20171216083602 19 275 1.0 6.0 0.00 0.00 0.00 86 1012.3
20171216082147 19 281 1.0 4.0 0.00 0.00 0.00 86 1012.3
20171216080550 19 293 2.0 12.0 0.00 0.00 0.00 86 1012.1
20171216075104 19 300 1.0 4.0 0.00 0.00 0.00 86 1012.1
20171216073611 18 236 1.0 8.0 0.00 0.00 0.00 87 1012.0
20171216072049 18 284 1.0 6.0 0.00 0.00 0.00 87 1011.8
20171216070643 18 304 1.0 7.0 0.00 0.00 0.00 88 1011.4
20171216065040 17 231 2.0 8.0 0.00 0.00 0.00 87 1011.3
20171216063546 17 281 1.0 3.0 0.00 0.00 0.00 88 1011.1
20171216062036 17 270 0.0 3.0 0.00 0.00 0.00 88 1011.0
20171216060535 18 241 0.0 2.0 0.00 0.00 0.00 88 1010.9
20171216055118 18 254 1.0 5.0 0.00 0.00 0.00 88 1010.9
20171216053543 18 205 0.0 5.0 0.00 0.00 0.00 88 1011.0
20171216052033 18 283 1.0 4.0 0.00 0.00 0.00 89 1010.9
20171216050531 17 232 2.0 8.0 0.00 0.00 0.00 90 1010.8
20171216045105 16 273 1.0 3.0 0.00 0.00 0.00 92 1010.8
20171216043526 15 229 0.0 2.0 0.00 0.00 0.00 91 1010.8
20171216042034 16 321 1.0 3.0 0.00 0.00 0.00 91 1010.8
20171216040552 16 294 0.0 3.0 0.00 0.00 0.00 91 1010.8
20171216035034 17 293 0.0 1.0 0.00 0.00 0.00 89 1010.8
20171216033524 17 293 0.0 1.0 0.00 0.00 0.00 90 1010.8
20171216032152 17 306 0.0 3.0 0.00 0.00 0.00 90 1010.8
20171216030551 17 273 0.0 2.0 0.00 0.00 0.00 91 1010.8
20171216025052 17 276 0.0 3.0 0.00 0.00 0.00 92 1010.8
20171216023709 16 270 0.0 3.0 0.00 0.00 0.00 91 1010.9
20171216022029 17 236 0.0 2.0 0.00 0.00 0.00 89 1010.9
20171216020541 17 213 0.0 3.0 0.00 0.00 0.00 90 1010.9
20171216015047 17 200 0.0 4.0 0.00 0.00 0.00 91 1011.0
20171216013522 17 304 1.0 2.0 0.00 0.00 0.00 91 1011.0
20171216012021 17 250 0.0 0.0 0.00 0.00 0.00 91 1011.0
20171216010519 17 250 0.0 0.0 0.00 0.00 0.00 91 1011.0
20171216005031 17 250 0.0 1.0 0.00 0.00 0.00 91 1011.3
20171216003517 17 250 0.0 3.0 0.00 0.00 0.00 91 1011.3